Time,TemperatureF,DewpointF,PressureIn,WindDirection,WindDirectionDegrees,WindSpeedMPH,WindSpeedGustMPH,Humidity,HourlyPrecipIn,Conditions,Clouds,dailyrainin,SoftwareType,DateUTC
2013-11-29 00:04:00,16.3,10.9,30.51,SE,124,2.0,4.0,79,0.00,,,0.00,WeatherCatV1.21B27,2013-11-29 06:04:00,
2013-11-29 00:09:00,16.3,10.9,30.51,SE,124,0.0,1.0,79,0.00,,,0.00,WeatherCatV1.21B27,2013-11-29 06:09:00,
2013-11-29 00:14:00,16.2,10.9,30.51,SE,124,0.0,1.0,79,0.00,,,0.00,WeatherCatV1.21B27,2013-11-29 06:14:00,
2013-11-29 00:19:00,16.1,10.8,30.50,SE,124,0.0,1.0,79,0.00,,,0.00,WeatherCatV1.21B27,2013-11-29 06:19:00,
2013-11-29 00:24:00,16.0,10.7,30.50,SE,124,1.0,2.0,79,0.00,,,0.00,WeatherCatV1.21B27,2013-11-29 06:24:00,
2013-11-29 00:29:00,16.0,10.7,30.50,SE,124,0.0,2.0,79,0.00,,,0.00,WeatherCatV1.21B27,2013-11-29 06:29:00,
2013-11-29 00:34:00,15.8,10.5,30.50,SE,124,0.0,1.0,79,0.00,,,0.00,WeatherCatV1.21B27,2013-11-29 06:34:00,
2013-11-29 00:39:00,15.7,10.4,30.50,SE,124,0.0,1.0,79,0.00,,,0.00,WeatherCatV1.21B27,2013-11-29 06:39:00,
2013-11-29 00:44:00,15.5,10.2,30.50,SE,124,0.0,3.0,79,0.00,,,0.00,WeatherCatV1.21B27,2013-11-29 06:44:00,
2013-11-29 00:49:00,15.5,10.4,30.50,SE,124,0.0,3.0,80,0.00,,,0.00,WeatherCatV1.21B27,2013-11-29 06:49:00,
2013-11-29 00:54:00,15.6,10.3,30.50,SE,134,1.0,2.0,79,0.00,,,0.00,WeatherCatV1.21B27,2013-11-29 06:54:00,
2013-11-29 00:59:00,15.5,10.2,30.49,SE,134,0.0,2.0,79,0.00,,,0.00,WeatherCatV1.21B27,2013-11-29 06:59:00,
2013-11-29 01:04:00,15.5,10.2,30.49,SE,141,1.0,1.0,79,0.00,,,0.00,WeatherCatV1.21B27,2013-11-29 07:04:00,
2013-11-29 01:09:00,15.5,10.2,30.49,SE,140,0.0,3.0,79,0.00,,,0.00,WeatherCatV1.21B27,2013-11-29 07:09:00,
2013-11-29 01:14:00,15.4,10.1,30.49,SE,140,0.0,2.0,79,0.00,,,0.00,WeatherCatV1.21B27,2013-11-29 07:14:00,
2013-11-29 01:19:00,15.4,10.1,30.50,SE,138,0.0,3.0,79,0.00,,,0.00,WeatherCatV1.21B27,2013-11-29 07:19:00,
2013-11-29 01:24:00,15.5,10.2,30.50,SSE,157,1.0,3.0,79,0.00,,,0.00,WeatherCatV1.21B27,2013-11-29 07:24:00,
2013-11-29 01:29:00,15.5,10.2,30.50,SSE,155,0.0,3.0,79,0.00,,,0.00,WeatherCatV1.21B27,2013-11-29 07:29:00,
2013-11-29 01:34:00,15.5,10.2,30.50,SSE,155,1.0,2.0,79,0.00,,,0.00,WeatherCatV1.21B27,2013-11-29 07:34:00,
2013-11-29 01:39:00,15.3,10.0,30.50,SSE,155,1.0,3.0,79,0.00,,,0.00,WeatherCatV1.21B27,2013-11-29 07:39:00,
2013-11-29 01:44:00,15.2,9.9,30.51,SSE,155,0.0,2.0,79,0.00,,,0.00,WeatherCatV1.21B27,2013-11-29 07:44:00,
2013-11-29 01:49:00,15.2,9.9,30.50,SSE,155,0.0,0.0,79,0.00,,,0.00,WeatherCatV1.21B27,2013-11-29 07:49:00,
2013-11-29 01:54:00,15.0,10.0,30.50,SSE,155,0.0,2.0,80,0.00,,,0.00,WeatherCatV1.21B27,2013-11-29 07:54:00,
2013-11-29 01:59:00,15.0,9.7,30.50,SSE,151,2.0,3.0,79,0.00,,,0.00,WeatherCatV1.21B27,2013-11-29 07:59:00,
2013-11-29 02:04:00,15.1,10.1,30.50,SE,141,1.0,3.0,80,0.00,,,0.00,WeatherCatV1.21B27,2013-11-29 08:04:00,
2013-11-29 02:09:00,15.2,9.9,30.50,SE,145,1.0,3.0,79,0.00,,,0.00,WeatherCatV1.21B27,2013-11-29 08:09:00,
2013-11-29 02:14:00,15.2,9.9,30.50,SE,145,1.0,4.0,79,0.00,,,0.00,WeatherCatV1.21B27,2013-11-29 08:14:00,
2013-11-29 02:19:00,15.3,10.0,30.50,SE,141,3.0,3.0,79,0.00,,,0.00,WeatherCatV1.21B27,2013-11-29 08:19:00,
2013-11-29 02:24:00,15.4,10.1,30.50,ESE,118,4.0,5.0,79,0.00,,,0.00,WeatherCatV1.21B27,2013-11-29 08:24:00,
2013-11-29 02:29:00,15.5,10.2,30.50,ESE,116,2.0,7.0,79,0.00,,,0.00,WeatherCatV1.21B27,2013-11-29 08:29:00,
2013-11-29 02:34:00,15.5,10.2,30.50,SE,128,2.0,3.0,79,0.00,,,0.00,WeatherCatV1.21B27,2013-11-29 08:34:00,
2013-11-29 02:39:00,15.5,10.2,30.50,SE,144,2.0,4.0,79,0.00,,,0.00,WeatherCatV1.21B27,2013-11-29 08:39:00,
2013-11-29 02:44:00,15.6,10.3,30.50,SE,139,0.0,6.0,79,0.00,,,0.00,WeatherCatV1.21B27,2013-11-29 08:44:00,
2013-11-29 02:49:00,15.6,10.0,30.50,ESE,114,3.0,4.0,78,0.00,,,0.00,WeatherCatV1.21B27,2013-11-29 08:49:00,
2013-11-29 02:54:00,15.7,10.1,30.50,SE,126,2.0,4.0,78,0.00,,,0.00,WeatherCatV1.21B27,2013-11-29 08:54:00,
2013-11-29 02:59:00,15.7,10.1,30.49,SE,137,3.0,6.0,78,0.00,,,0.00,WeatherCatV1.21B27,2013-11-29 08:59:00,
2013-11-29 03:04:00,15.7,10.1,30.49,ESE,115,0.0,8.0,78,0.00,,,0.00,WeatherCatV1.21B27,2013-11-29 09:04:00,
2013-11-29 03:09:00,15.8,10.2,30.49,ESE,123,5.0,5.0,78,0.00,,,0.00,WeatherCatV1.21B27,2013-11-29 09:09:00,
2013-11-29 03:14:00,15.8,10.2,30.49,SSE,163,4.0,7.0,78,0.00,,,0.00,WeatherCatV1.21B27,2013-11-29 09:14:00,
2013-11-29 03:19:00,15.8,10.2,30.48,SE,145,1.0,5.0,78,0.00,,,0.00,WeatherCatV1.21B27,2013-11-29 09:19:00,
2013-11-29 03:24:00,15.8,10.2,30.48,SE,133,2.0,7.0,78,0.00,,,0.00,WeatherCatV1.21B27,2013-11-29 09:24:00,
2013-11-29 03:29:00,15.7,10.1,30.48,ESE,103,3.0,6.0,78,0.00,,,0.00,WeatherCatV1.21B27,2013-11-29 09:29:00,
2013-11-29 03:34:00,15.7,10.1,30.48,SE,140,2.0,5.0,78,0.00,,,0.00,WeatherCatV1.21B27,2013-11-29 09:34:00,
2013-11-29 03:39:00,15.7,10.1,30.48,SE,140,3.0,4.0,78,0.00,,,0.00,WeatherCatV1.21B27,2013-11-29 09:39:00,
2013-11-29 03:44:00,15.7,10.1,30.48,ESE,106,0.0,5.0,78,0.00,,,0.00,WeatherCatV1.21B27,2013-11-29 09:44:00,
2013-11-29 03:49:00,15.7,10.1,30.48,ESE,111,1.0,7.0,78,0.00,,,0.00,WeatherCatV1.21B27,2013-11-29 09:49:00,
2013-11-29 03:54:00,15.7,10.1,30.48,SE,134,4.0,6.0,78,0.00,,,0.00,WeatherCatV1.21B27,2013-11-29 09:54:00,
2013-11-29 03:59:00,15.6,10.0,30.47,SSE,158,4.0,7.0,78,0.00,,,0.00,WeatherCatV1.21B27,2013-11-29 09:59:00,
2013-11-29 04:04:00,15.5,9.9,30.47,SE,143,1.0,3.0,78,0.00,,,0.00,WeatherCatV1.21B27,2013-11-29 10:04:00,
2013-11-29 04:09:00,15.5,10.2,30.47,SE,144,2.0,5.0,79,0.00,,,0.00,WeatherCatV1.21B27,2013-11-29 10:09:00,
2013-11-29 04:14:00,15.4,10.1,30.47,SE,140,1.0,6.0,79,0.00,,,0.00,WeatherCatV1.21B27,2013-11-29 10:14:00,
2013-11-29 04:19:00,15.4,10.1,30.46,SE,126,0.0,7.0,79,0.00,,,0.00,WeatherCatV1.21B27,2013-11-29 10:19:00,
2013-11-29 04:24:00,15.4,10.1,30.46,SSE,148,2.0,7.0,79,0.00,,,0.00,WeatherCatV1.21B27,2013-11-29 10:24:00,
2013-11-29 04:29:00,15.3,10.0,30.46,SE,133,4.0,4.0,79,0.00,,,0.00,WeatherCatV1.21B27,2013-11-29 10:29:00,
2013-11-29 04:34:00,15.3,10.0,30.46,SE,135,2.0,4.0,79,0.00,,,0.00,WeatherCatV1.21B27,2013-11-29 10:34:00,
2013-11-29 04:39:00,15.3,10.0,30.46,ESE,108,1.0,5.0,79,0.00,,,0.00,WeatherCatV1.21B27,2013-11-29 10:39:00,
2013-11-29 04:44:00,15.3,10.0,30.45,SE,128,3.0,5.0,79,0.00,,,0.00,WeatherCatV1.21B27,2013-11-29 10:44:00,
2013-11-29 04:49:00,15.3,10.3,30.45,SE,126,1.0,4.0,80,0.00,,,0.00,WeatherCatV1.21B27,2013-11-29 10:49:00,
2013-11-29 04:54:00,15.3,10.3,30.45,SE,134,3.0,4.0,80,0.00,,,0.00,WeatherCatV1.21B27,2013-11-29 10:54:00,
2013-11-29 04:59:00,15.3,10.3,30.45,SE,134,1.0,5.0,80,0.00,,,0.00,WeatherCatV1.21B27,2013-11-29 10:59:00,
2013-11-29 05:04:00,15.4,10.4,30.44,ESE,118,2.0,8.0,80,0.00,,,0.00,WeatherCatV1.21B27,2013-11-29 11:04:00,
2013-11-29 05:09:00,15.6,10.6,30.44,ESE,123,5.0,8.0,80,0.00,,,0.00,WeatherCatV1.21B27,2013-11-29 11:09:00,
2013-11-29 05:14:00,15.8,10.8,30.44,ESE,108,1.0,7.0,80,0.00,,,0.00,WeatherCatV1.21B27,2013-11-29 11:14:00,
2013-11-29 05:19:00,16.0,10.9,30.44,SE,143,3.0,5.0,80,0.00,,,0.00,WeatherCatV1.21B27,2013-11-29 11:19:00,
2013-11-29 05:24:00,16.1,11.0,30.43,ESE,122,3.0,5.0,80,0.00,,,0.00,WeatherCatV1.21B27,2013-11-29 11:24:00,
2013-11-29 05:29:00,16.1,11.0,30.43,ESE,108,3.0,8.0,80,0.00,,,0.00,WeatherCatV1.21B27,2013-11-29 11:29:00,
2013-11-29 05:34:00,16.1,11.0,30.43,SE,124,4.0,4.0,80,0.00,,,0.00,WeatherCatV1.21B27,2013-11-29 11:34:00,
2013-11-29 05:39:00,16.2,11.1,30.43,SE,145,3.0,6.0,80,0.00,,,0.00,WeatherCatV1.21B27,2013-11-29 11:39:00,
2013-11-29 05:44:00,16.1,11.0,30.43,SSE,157,3.0,5.0,80,0.00,,,0.00,WeatherCatV1.21B27,2013-11-29 11:44:00,
2013-11-29 05:49:00,16.2,11.1,30.43,ESE,121,1.0,3.0,80,0.00,,,0.00,WeatherCatV1.21B27,2013-11-29 11:49:00,
2013-11-29 05:54:00,16.2,11.1,30.43,SE,137,1.0,7.0,80,0.00,,,0.00,WeatherCatV1.21B27,2013-11-29 11:54:00,
2013-11-29 05:59:00,16.2,11.1,30.42,SE,125,2.0,3.0,80,0.00,,,0.00,WeatherCatV1.21B27,2013-11-29 11:59:00,
2013-11-29 06:04:00,16.2,11.1,30.42,ESE,122,4.0,6.0,80,0.00,,,0.00,WeatherCatV1.21B27,2013-11-29 12:04:00,
2013-11-29 06:09:00,16.2,11.1,30.42,SSE,147,4.0,7.0,80,0.00,,,0.00,WeatherCatV1.21B27,2013-11-29 12:09:00,
2013-11-29 06:14:00,16.1,11.0,30.42,SSE,160,0.0,7.0,80,0.00,,,0.00,WeatherCatV1.21B27,2013-11-29 12:14:00,
2013-11-29 06:19:00,16.1,11.3,30.42,ESE,118,7.0,7.0,81,0.00,,,0.00,WeatherCatV1.21B27,2013-11-29 12:19:00,
2013-11-29 06:24:00,16.1,11.3,30.42,SE,142,0.0,6.0,81,0.00,,,0.00,WeatherCatV1.21B27,2013-11-29 12:24:00,
2013-11-29 06:29:00,16.1,11.3,30.42,SE,139,2.0,7.0,81,0.00,,,0.00,WeatherCatV1.21B27,2013-11-29 12:29:00,
2013-11-29 06:34:00,16.2,11.4,30.42,SE,133,1.0,3.0,81,0.00,,,0.00,WeatherCatV1.21B27,2013-11-29 12:34:00,
2013-11-29 06:39:00,16.2,11.4,30.42,SE,128,2.0,4.0,81,0.00,,,0.00,WeatherCatV1.21B27,2013-11-29 12:39:00,
2013-11-29 06:44:00,16.3,11.8,30.42,SE,141,2.0,4.0,82,0.00,,,0.00,WeatherCatV1.21B27,2013-11-29 12:44:00,
2013-11-29 06:49:00,16.6,12.1,30.42,SE,133,3.0,4.0,82,0.00,,,0.00,WeatherCatV1.21B27,2013-11-29 12:49:00,
2013-11-29 06:54:00,16.8,12.3,30.41,SE,125,7.0,7.0,82,0.00,,,0.00,WeatherCatV1.21B27,2013-11-29 12:54:00,
2013-11-29 06:59:00,17.0,12.5,30.41,SE,127,3.0,6.0,82,0.00,,,0.00,WeatherCatV1.21B27,2013-11-29 12:59:00,
2013-11-29 07:05:00,17.2,12.7,30.41,SE,131,2.0,5.0,82,0.00,,,0.00,WeatherCatV1.21B27,2013-11-29 13:05:00,
2013-11-29 07:10:00,17.3,12.8,30.41,ESE,116,2.0,3.0,82,0.00,,,0.00,WeatherCatV1.21B27,2013-11-29 13:10:00,
2013-11-29 07:15:00,17.6,13.1,30.41,SE,126,3.0,5.0,82,0.00,,,0.00,WeatherCatV1.21B27,2013-11-29 13:15:00,
2013-11-29 07:20:00,17.9,13.4,30.41,ESE,120,4.0,4.0,82,0.00,,,0.00,WeatherCatV1.21B27,2013-11-29 13:20:00,
2013-11-29 07:25:00,18.1,13.6,30.41,SE,127,4.0,5.0,82,0.00,,,0.00,WeatherCatV1.21B27,2013-11-29 13:25:00,
2013-11-29 07:30:00,18.3,13.5,30.41,ESE,111,4.0,9.0,81,0.00,,,0.00,WeatherCatV1.21B27,2013-11-29 13:30:00,
2013-11-29 07:35:00,18.5,13.7,30.41,SE,143,4.0,6.0,81,0.00,,,0.00,WeatherCatV1.21B27,2013-11-29 13:35:00,
2013-11-29 07:40:00,18.7,14.1,30.41,SE,125,1.0,7.0,82,0.00,,,0.00,WeatherCatV1.21B27,2013-11-29 13:40:00,
2013-11-29 07:45:00,18.8,14.2,30.41,ESE,112,4.0,7.0,82,0.00,,,0.00,WeatherCatV1.21B27,2013-11-29 13:45:00,
2013-11-29 07:50:00,19.0,14.4,30.40,ESE,110,4.0,4.0,82,0.00,,,0.00,WeatherCatV1.21B27,2013-11-29 13:50:00,
2013-11-29 07:55:00,19.2,14.4,30.40,ESE,122,5.0,5.0,81,0.00,,,0.00,WeatherCatV1.21B27,2013-11-29 13:55:00,
2013-11-29 08:00:00,19.3,14.4,30.40,ESE,112,2.0,9.0,81,0.00,,,0.00,WeatherCatV1.21B27,2013-11-29 14:00:00,
2013-11-29 08:05:00,19.4,14.5,30.40,ESE,117,4.0,8.0,81,0.00,,,0.00,WeatherCatV1.21B27,2013-11-29 14:05:00,
2013-11-29 08:10:00,19.4,14.5,30.40,SE,128,7.0,9.0,81,0.00,,,0.00,WeatherCatV1.21B27,2013-11-29 14:10:00,
2013-11-29 08:15:00,19.4,14.5,30.40,ESE,115,5.0,10.0,81,0.00,,,0.00,WeatherCatV1.21B27,2013-11-29 14:15:00,
2013-11-29 08:20:00,19.5,14.6,30.40,SE,145,4.0,11.0,81,0.00,,,0.00,WeatherCatV1.21B27,2013-11-29 14:20:00,
2013-11-29 08:25:00,19.5,14.6,30.39,SE,134,4.0,11.0,81,0.00,,,0.00,WeatherCatV1.21B27,2013-11-29 14:25:00,
2013-11-29 08:30:00,19.5,14.6,30.39,SSE,160,6.0,6.0,81,0.00,,,0.00,WeatherCatV1.21B27,2013-11-29 14:30:00,
2013-11-29 08:35:00,19.6,14.7,30.40,ESE,118,4.0,7.0,81,0.00,,,0.00,WeatherCatV1.21B27,2013-11-29 14:35:00,
2013-11-29 08:40:00,19.7,14.8,30.39,ESE,108,4.0,9.0,81,0.00,,,0.00,WeatherCatV1.21B27,2013-11-29 14:40:00,
2013-11-29 08:45:00,19.8,14.9,30.40,ESE,123,1.0,8.0,81,0.00,,,0.00,WeatherCatV1.21B27,2013-11-29 14:45:00,
2013-11-29 08:50:00,19.9,15.0,30.39,ESE,117,7.0,7.0,81,0.00,,,0.00,WeatherCatV1.21B27,2013-11-29 14:50:00,
2013-11-29 08:55:00,20.1,15.2,30.39,SE,136,1.0,5.0,81,0.00,,,0.00,WeatherCatV1.21B27,2013-11-29 14:55:00,
2013-11-29 09:00:00,20.3,15.4,30.39,SE,143,3.0,5.0,81,0.00,,,0.00,WeatherCatV1.21B27,2013-11-29 15:00:00,
2013-11-29 09:05:00,20.5,15.6,30.39,SE,143,4.0,7.0,81,0.00,,,0.00,WeatherCatV1.21B27,2013-11-29 15:05:00,
2013-11-29 09:10:00,20.8,15.9,30.39,SE,130,4.0,7.0,81,0.00,,,0.00,WeatherCatV1.21B27,2013-11-29 15:10:00,
2013-11-29 09:15:00,21.2,16.3,30.39,SE,132,6.0,9.0,81,0.00,,,0.00,WeatherCatV1.21B27,2013-11-29 15:15:00,
2013-11-29 09:20:00,21.5,16.6,30.39,SE,140,5.0,13.0,81,0.00,,,0.00,WeatherCatV1.21B27,2013-11-29 15:20:00,
2013-11-29 09:25:00,21.8,16.6,30.39,SE,126,4.0,7.0,80,0.00,,,0.00,WeatherCatV1.21B27,2013-11-29 15:25:00,
2013-11-29 09:30:00,22.1,16.9,30.39,ESE,114,3.0,9.0,80,0.00,,,0.00,WeatherCatV1.21B27,2013-11-29 15:30:00,
2013-11-29 09:35:00,22.4,17.2,30.39,ENE,70,9.0,9.0,80,0.00,,,0.00,WeatherCatV1.21B27,2013-11-29 15:35:00,
2013-11-29 09:40:00,22.8,17.3,30.39,South,178,3.0,8.0,79,0.00,,,0.00,WeatherCatV1.21B27,2013-11-29 15:40:00,
2013-11-29 09:45:00,23.3,17.8,30.38,SE,126,2.0,7.0,79,0.00,,,0.00,WeatherCatV1.21B27,2013-11-29 15:45:00,
2013-11-29 09:50:00,23.7,18.2,30.38,ESE,121,5.0,9.0,79,0.00,,,0.00,WeatherCatV1.21B27,2013-11-29 15:50:00,
2013-11-29 09:55:00,23.9,18.1,30.38,SSE,164,2.0,7.0,78,0.00,,,0.00,WeatherCatV1.21B27,2013-11-29 15:55:00,
2013-11-29 10:00:00,24.0,18.2,30.38,SE,126,4.0,5.0,78,0.00,,,0.00,WeatherCatV1.21B27,2013-11-29 16:00:00,
2013-11-29 10:05:00,24.2,18.4,30.38,SE,126,5.0,8.0,78,0.00,,,0.00,WeatherCatV1.21B27,2013-11-29 16:05:00,
2013-11-29 10:10:00,24.6,18.7,30.38,ESE,108,0.0,4.0,78,0.00,,,0.00,WeatherCatV1.21B27,2013-11-29 16:10:00,
2013-11-29 10:15:00,25.2,19.3,30.38,SE,133,3.0,5.0,78,0.00,,,0.00,WeatherCatV1.21B27,2013-11-29 16:15:00,
2013-11-29 10:20:00,26.0,19.8,30.38,SE,141,6.0,9.0,77,0.00,,,0.00,WeatherCatV1.21B27,2013-11-29 16:20:00,
2013-11-29 10:25:00,26.4,19.6,30.38,ESE,122,5.0,12.0,75,0.00,,,0.00,WeatherCatV1.21B27,2013-11-29 16:25:00,
2013-11-29 10:30:00,26.9,20.0,30.38,SE,135,4.0,8.0,75,0.00,,,0.00,WeatherCatV1.21B27,2013-11-29 16:30:00,
2013-11-29 10:35:00,27.3,20.1,30.37,ESE,122,2.0,13.0,74,0.00,,,0.00,WeatherCatV1.21B27,2013-11-29 16:35:00,
2013-11-29 10:40:00,27.3,19.8,30.37,SE,137,4.0,8.0,73,0.00,,,0.00,WeatherCatV1.21B27,2013-11-29 16:40:00,
2013-11-29 10:45:00,27.7,20.2,30.36,ESE,116,8.0,10.0,73,0.00,,,0.00,WeatherCatV1.21B27,2013-11-29 16:45:00,
2013-11-29 10:50:00,28.2,20.7,30.36,ESE,106,8.0,12.0,73,0.00,,,0.00,WeatherCatV1.21B27,2013-11-29 16:50:00,
2013-11-29 10:55:00,28.6,20.7,30.36,SSE,149,7.0,12.0,72,0.00,,,0.00,WeatherCatV1.21B27,2013-11-29 16:55:00,
2013-11-29 11:00:00,28.7,20.5,30.36,ESE,112,15.0,18.0,71,0.00,,,0.00,WeatherCatV1.21B27,2013-11-29 17:00:00,
2013-11-29 11:05:00,29.1,20.9,30.35,SSW,212,7.0,14.0,71,0.00,,,0.00,WeatherCatV1.21B27,2013-11-29 17:05:00,
2013-11-29 11:10:00,29.8,21.2,30.35,SE,125,12.0,14.0,70,0.00,,,0.00,WeatherCatV1.21B27,2013-11-29 17:10:00,
2013-11-29 11:15:00,29.4,20.5,30.35,SE,145,8.0,11.0,69,0.00,,,0.00,WeatherCatV1.21B27,2013-11-29 17:15:00,
2013-11-29 11:20:00,29.1,20.6,30.35,SSE,151,5.0,16.0,70,0.00,,,0.00,WeatherCatV1.21B27,2013-11-29 17:20:00,
2013-11-29 11:25:00,29.6,21.0,30.34,SE,131,8.0,12.0,70,0.00,,,0.00,WeatherCatV1.21B27,2013-11-29 17:25:00,
2013-11-29 11:30:00,30.4,21.5,30.34,ESE,103,6.0,10.0,69,0.00,,,0.00,WeatherCatV1.21B27,2013-11-29 17:30:00,
2013-11-29 11:35:00,31.1,21.4,30.32,ESE,113,3.0,13.0,67,0.00,,,0.00,WeatherCatV1.21B27,2013-11-29 17:35:00,
2013-11-29 11:40:00,31.4,21.7,30.32,ESE,113,9.0,13.0,67,0.00,,,0.00,WeatherCatV1.21B27,2013-11-29 17:40:00,
2013-11-29 11:45:00,31.3,21.3,30.31,South,190,11.0,11.0,66,0.00,,,0.00,WeatherCatV1.21B27,2013-11-29 17:45:00,
2013-11-29 11:50:00,31.2,21.5,30.31,SE,124,14.0,15.0,67,0.00,,,0.00,WeatherCatV1.21B27,2013-11-29 17:50:00,
2013-11-29 11:55:00,31.1,21.4,30.31,ESE,103,9.0,12.0,67,0.00,,,0.00,WeatherCatV1.21B27,2013-11-29 17:55:00,
2013-11-29 12:00:00,31.3,21.6,30.30,ESE,118,11.0,18.0,67,0.00,,,0.00,WeatherCatV1.21B27,2013-11-29 18:00:00,
2013-11-29 12:05:00,31.5,21.8,30.30,SE,126,3.0,14.0,67,0.00,,,0.00,WeatherCatV1.21B27,2013-11-29 18:05:00,
2013-11-29 12:10:00,32.1,22.0,30.29,SE,131,9.0,11.0,66,0.00,,,0.00,WeatherCatV1.21B27,2013-11-29 18:10:00,
2013-11-29 12:15:00,31.9,21.9,30.30,ESE,120,8.0,13.0,66,0.00,,,0.00,WeatherCatV1.21B27,2013-11-29 18:15:00,
2013-11-29 12:20:00,31.8,21.8,30.29,SSW,195,4.0,8.0,66,0.00,,,0.00,WeatherCatV1.21B27,2013-11-29 18:20:00,
2013-11-29 12:25:00,32.0,22.0,30.28,SE,142,4.0,11.0,66,0.00,,,0.00,WeatherCatV1.21B27,2013-11-29 18:25:00,
2013-11-29 12:30:00,32.0,22.0,30.27,SE,131,7.0,15.0,66,0.00,,,0.00,WeatherCatV1.21B27,2013-11-29 18:30:00,
2013-11-29 12:35:00,32.5,22.4,30.27,ESE,114,7.0,7.0,66,0.00,,,0.00,WeatherCatV1.21B27,2013-11-29 18:35:00,
2013-11-29 12:40:00,33.2,22.7,30.27,ESE,118,5.0,11.0,65,0.00,,,0.00,WeatherCatV1.21B27,2013-11-29 18:40:00,
2013-11-29 12:45:00,33.7,22.8,30.26,SE,127,7.0,17.0,64,0.00,,,0.00,WeatherCatV1.21B27,2013-11-29 18:45:00,
2013-11-29 12:50:00,33.7,22.8,30.26,SE,143,7.0,11.0,64,0.00,,,0.00,WeatherCatV1.21B27,2013-11-29 18:50:00,
2013-11-29 12:55:00,34.2,23.3,30.26,ESE,116,8.0,14.0,64,0.00,,,0.00,WeatherCatV1.21B27,2013-11-29 18:55:00,
2013-11-29 13:00:00,34.2,22.9,30.26,SE,143,10.0,13.0,63,0.00,,,0.00,WeatherCatV1.21B27,2013-11-29 19:00:00,
2013-11-29 13:05:00,34.1,22.8,30.25,South,171,8.0,9.0,63,0.00,,,0.00,WeatherCatV1.21B27,2013-11-29 19:05:00,
2013-11-29 13:10:00,34.3,23.0,30.25,ESE,115,8.0,9.0,63,0.00,,,0.00,WeatherCatV1.21B27,2013-11-29 19:10:00,
2013-11-29 13:15:00,34.7,23.4,30.25,ESE,117,3.0,11.0,63,0.00,,,0.00,WeatherCatV1.21B27,2013-11-29 19:15:00,
2013-11-29 13:20:00,35.1,23.4,30.24,SSE,160,8.0,12.0,62,0.00,,,0.00,WeatherCatV1.21B27,2013-11-29 19:20:00,
2013-11-29 13:25:00,35.6,23.9,30.23,SE,133,17.0,17.0,62,0.00,,,0.00,WeatherCatV1.21B27,2013-11-29 19:25:00,
2013-11-29 13:30:00,36.2,24.1,30.23,SSE,166,11.0,11.0,61,0.00,,,0.00,WeatherCatV1.21B27,2013-11-29 19:30:00,
2013-11-29 13:35:00,36.9,23.9,30.22,SE,132,3.0,10.0,59,0.00,,,0.00,WeatherCatV1.21B27,2013-11-29 19:35:00,
2013-11-29 13:40:00,37.5,24.5,30.22,East,101,10.0,10.0,59,0.00,,,0.00,WeatherCatV1.21B27,2013-11-29 19:40:00,
2013-11-29 13:45:00,38.0,24.5,30.22,SE,126,7.0,16.0,58,0.00,,,0.00,WeatherCatV1.21B27,2013-11-29 19:45:00,
2013-11-29 13:50:00,38.1,24.6,30.21,East,97,15.0,17.0,58,0.00,,,0.00,WeatherCatV1.21B27,2013-11-29 19:50:00,
2013-11-29 13:55:00,38.2,24.7,30.21,ESE,117,7.0,17.0,58,0.00,,,0.00,WeatherCatV1.21B27,2013-11-29 19:55:00,
2013-11-29 14:00:00,38.1,24.2,30.20,SE,134,9.0,15.0,57,0.00,,,0.00,WeatherCatV1.21B27,2013-11-29 20:00:00,
2013-11-29 14:05:00,38.4,24.9,30.20,SE,137,4.0,13.0,58,0.00,,,0.00,WeatherCatV1.21B27,2013-11-29 20:05:00,
2013-11-29 14:10:00,38.7,24.8,30.20,SE,137,10.0,15.0,57,0.00,,,0.00,WeatherCatV1.21B27,2013-11-29 20:10:00,
2013-11-29 14:15:00,38.7,24.8,30.19,SE,135,12.0,12.0,57,0.00,,,0.00,WeatherCatV1.21B27,2013-11-29 20:15:00,
2013-11-29 14:20:00,38.8,24.9,30.19,ESE,120,10.0,14.0,57,0.00,,,0.00,WeatherCatV1.21B27,2013-11-29 20:20:00,
2013-11-29 14:25:00,38.2,24.7,30.19,SE,135,4.0,17.0,58,0.00,,,0.00,WeatherCatV1.21B27,2013-11-29 20:25:00,
2013-11-29 14:30:00,37.7,24.3,30.19,SE,132,7.0,12.0,58,0.00,,,0.00,WeatherCatV1.21B27,2013-11-29 20:30:00,
2013-11-29 14:35:00,37.8,24.4,30.19,SE,137,7.0,15.0,58,0.00,,,0.00,WeatherCatV1.21B27,2013-11-29 20:35:00,
2013-11-29 14:40:00,37.6,24.6,30.19,ESE,106,10.0,10.0,59,0.00,,,0.00,WeatherCatV1.21B27,2013-11-29 20:40:00,
2013-11-29 14:45:00,37.9,24.9,30.19,SE,141,5.0,7.0,59,0.00,,,0.00,WeatherCatV1.21B27,2013-11-29 20:45:00,
2013-11-29 14:50:00,38.1,24.6,30.19,SSE,149,6.0,8.0,58,0.00,,,0.00,WeatherCatV1.21B27,2013-11-29 20:50:00,
2013-11-29 14:55:00,37.8,24.8,30.18,SSE,164,6.0,7.0,59,0.00,,,0.00,WeatherCatV1.21B27,2013-11-29 20:55:00,
2013-11-29 15:00:00,37.8,24.8,30.18,SSE,152,7.0,12.0,59,0.00,,,0.00,WeatherCatV1.21B27,2013-11-29 21:00:00,
2013-11-29 15:05:00,37.9,24.9,30.17,ESE,116,7.0,14.0,59,0.00,,,0.00,WeatherCatV1.21B27,2013-11-29 21:05:00,
2013-11-29 15:10:00,38.2,25.1,30.17,East,89,13.0,13.0,59,0.00,,,0.00,WeatherCatV1.21B27,2013-11-29 21:10:00,
2013-11-29 15:15:00,38.4,24.9,30.17,ESE,123,3.0,14.0,58,0.00,,,0.00,WeatherCatV1.21B27,2013-11-29 21:15:00,
2013-11-29 15:20:00,38.3,24.8,30.17,SE,135,7.0,13.0,58,0.00,,,0.00,WeatherCatV1.21B27,2013-11-29 21:20:00,
2013-11-29 15:25:00,38.1,24.6,30.17,ESE,117,8.0,15.0,58,0.00,,,0.00,WeatherCatV1.21B27,2013-11-29 21:25:00,
2013-11-29 15:30:00,38.0,25.0,30.16,SSE,147,7.0,10.0,59,0.00,,,0.00,WeatherCatV1.21B27,2013-11-29 21:30:00,
2013-11-29 15:35:00,38.0,25.0,30.16,ESE,119,10.0,14.0,59,0.00,,,0.00,WeatherCatV1.21B27,2013-11-29 21:35:00,
2013-11-29 15:40:00,38.0,25.0,30.17,ESE,108,12.0,13.0,59,0.00,,,0.00,WeatherCatV1.21B27,2013-11-29 21:40:00,
2013-11-29 15:45:00,38.0,25.0,30.17,SE,135,5.0,10.0,59,0.00,,,0.00,WeatherCatV1.21B27,2013-11-29 21:45:00,
2013-11-29 15:50:00,38.0,25.0,30.17,SSE,153,2.0,9.0,59,0.00,,,0.00,WeatherCatV1.21B27,2013-11-29 21:50:00,
2013-11-29 15:55:00,37.8,24.8,30.17,SSE,151,6.0,9.0,59,0.00,,,0.00,WeatherCatV1.21B27,2013-11-29 21:55:00,
2013-11-29 16:00:00,37.6,25.0,30.17,SE,139,4.0,9.0,60,0.00,,,0.00,WeatherCatV1.21B27,2013-11-29 22:00:00,
2013-11-29 16:05:00,37.3,24.7,30.17,SSE,149,6.0,11.0,60,0.00,,,0.00,WeatherCatV1.21B27,2013-11-29 22:05:00,
2013-11-29 16:10:00,37.1,24.9,30.17,SE,142,4.0,9.0,61,0.00,,,0.00,WeatherCatV1.21B27,2013-11-29 22:10:00,
2013-11-29 16:15:00,36.9,24.7,30.16,ESE,114,5.0,11.0,61,0.00,,,0.00,WeatherCatV1.21B27,2013-11-29 22:15:00,
2013-11-29 16:20:00,36.6,24.4,30.16,ESE,108,7.0,10.0,61,0.00,,,0.00,WeatherCatV1.21B27,2013-11-29 22:20:00,
2013-11-29 16:25:00,36.5,24.4,30.16,ESE,122,2.0,10.0,61,0.00,,,0.00,WeatherCatV1.21B27,2013-11-29 22:25:00,
2013-11-29 16:30:00,36.2,24.5,30.16,SE,129,0.0,8.0,62,0.00,,,0.00,WeatherCatV1.21B27,2013-11-29 22:30:00,
2013-11-29 16:35:00,36.0,24.3,30.16,SE,133,4.0,6.0,62,0.00,,,0.00,WeatherCatV1.21B27,2013-11-29 22:35:00,
2013-11-29 16:40:00,35.6,23.9,30.15,SE,132,3.0,8.0,62,0.00,,,0.00,WeatherCatV1.21B27,2013-11-29 22:40:00,
2013-11-29 16:45:00,35.4,24.1,30.16,ESE,116,3.0,10.0,63,0.00,,,0.00,WeatherCatV1.21B27,2013-11-29 22:45:00,
2013-11-29 16:50:00,35.3,24.0,30.15,SSE,161,3.0,8.0,63,0.00,,,0.00,WeatherCatV1.21B27,2013-11-29 22:50:00,
2013-11-29 17:10:00,34.4,23.5,30.16,ESE,114,5.0,5.0,64,0.00,,,0.00,WeatherCatV1.21B27,2013-11-29 23:10:00,
2013-11-29 17:15:00,34.2,23.7,30.16,SE,139,2.0,4.0,65,0.00,,,0.00,WeatherCatV1.21B27,2013-11-29 23:15:00,
2013-11-29 17:20:00,34.0,23.5,30.17,SE,135,1.0,3.0,65,0.00,,,0.00,WeatherCatV1.21B27,2013-11-29 23:20:00,
2013-11-29 17:25:00,33.8,23.3,30.17,SE,131,0.0,4.0,65,0.00,,,0.00,WeatherCatV1.21B27,2013-11-29 23:25:00,
2013-11-29 17:30:00,33.6,23.5,30.17,SE,124,1.0,3.0,66,0.00,,,0.00,WeatherCatV1.21B27,2013-11-29 23:30:00,
2013-11-29 17:36:00,33.3,23.2,30.17,SE,135,1.0,3.0,66,0.00,,,0.00,WeatherCatV1.21B27,2013-11-29 23:36:00,
2013-11-29 17:43:00,33.0,22.9,30.17,SE,135,2.0,3.0,66,0.00,,,0.00,WeatherCatV1.21B27,2013-11-29 23:43:00,
2013-11-29 17:48:00,32.9,23.2,30.16,SE,135,1.0,2.0,67,0.00,,,0.00,WeatherCatV1.21B27,2013-11-29 23:48:00,
2013-11-29 17:54:00,32.6,22.9,30.16,SE,131,0.0,2.0,67,0.00,,,0.00,WeatherCatV1.21B27,2013-11-29 23:54:00,
2013-11-29 17:59:00,32.4,23.0,30.16,SE,135,1.0,4.0,68,0.00,,,0.00,WeatherCatV1.21B27,2013-11-29 23:59:00,
2013-11-29 18:05:00,32.1,22.8,30.16,SE,135,0.0,3.0,68,0.00,,,0.00,WeatherCatV1.21B27,2013-11-30 00:05:00,
2013-11-29 18:11:00,31.9,22.9,30.16,SE,137,3.0,5.0,69,0.00,,,0.00,WeatherCatV1.21B27,2013-11-30 00:11:00,
2013-11-29 18:17:00,31.7,22.7,30.16,SE,125,1.0,1.0,69,0.00,,,0.00,WeatherCatV1.21B27,2013-11-30 00:17:00,
2013-11-29 18:23:00,31.6,23.0,30.16,SE,136,0.0,3.0,70,0.00,,,0.00,WeatherCatV1.21B27,2013-11-30 00:23:00,
2013-11-29 18:28:00,31.5,22.9,30.16,SE,137,1.0,4.0,70,0.00,,,0.00,WeatherCatV1.21B27,2013-11-30 00:28:00,
2013-11-29 18:34:00,31.5,22.9,30.17,SE,137,2.0,2.0,70,0.00,,,0.00,WeatherCatV1.21B27,2013-11-30 00:34:00,
2013-11-29 18:39:00,31.5,23.2,30.17,SE,137,0.0,2.0,71,0.00,,,0.00,WeatherCatV1.21B27,2013-11-30 00:39:00,
2013-11-29 18:45:00,31.5,23.2,30.17,SE,124,2.0,2.0,71,0.00,,,0.00,WeatherCatV1.21B27,2013-11-30 00:45:00,
2013-11-29 18:51:00,31.4,23.1,30.17,SE,124,1.0,3.0,71,0.00,,,0.00,WeatherCatV1.21B27,2013-11-30 00:51:00,
2013-11-29 18:57:00,31.4,23.1,30.17,SE,128,0.0,0.0,71,0.00,,,0.00,WeatherCatV1.21B27,2013-11-30 00:57:00,
2013-11-29 19:02:00,31.3,23.0,30.17,SE,125,2.0,2.0,71,0.00,,,0.00,WeatherCatV1.21B27,2013-11-30 01:02:00,
2013-11-29 19:07:00,31.2,22.9,30.16,SE,124,0.0,1.0,71,0.00,,,0.00,WeatherCatV1.21B27,2013-11-30 01:07:00,
2013-11-29 19:12:00,31.0,23.0,30.17,SE,124,0.0,1.0,72,0.00,,,0.00,WeatherCatV1.21B27,2013-11-30 01:12:00,
2013-11-29 19:17:00,30.9,23.0,30.17,SE,124,1.0,1.0,72,0.00,,,0.00,WeatherCatV1.21B27,2013-11-30 01:17:00,
2013-11-29 19:23:00,30.7,22.8,30.17,SE,124,0.0,0.0,72,0.00,,,0.00,WeatherCatV1.21B27,2013-11-30 01:23:00,
2013-11-29 19:29:00,30.6,23.0,30.16,SE,124,0.0,2.0,73,0.00,,,0.00,WeatherCatV1.21B27,2013-11-30 01:29:00,
2013-11-29 19:35:00,30.5,22.9,30.17,SE,124,0.0,2.0,73,0.00,,,0.00,WeatherCatV1.21B27,2013-11-30 01:35:00,
2013-11-29 19:40:00,30.3,22.7,30.16,SE,124,1.0,1.0,73,0.00,,,0.00,WeatherCatV1.21B27,2013-11-30 01:40:00,
2013-11-29 19:46:00,30.2,22.9,30.16,SE,124,0.0,0.0,74,0.00,,,0.00,WeatherCatV1.21B27,2013-11-30 01:46:00,
2013-11-29 19:51:00,30.2,22.9,30.15,SE,124,3.0,3.0,74,0.00,,,0.00,WeatherCatV1.21B27,2013-11-30 01:51:00,
2013-11-29 19:57:00,30.3,23.3,30.15,ESE,122,2.0,4.0,75,0.00,,,0.00,WeatherCatV1.21B27,2013-11-30 01:57:00,
2013-11-29 20:02:00,30.5,23.5,30.15,ESE,122,0.0,2.0,75,0.00,,,0.00,WeatherCatV1.21B27,2013-11-30 02:02:00,
2013-11-29 20:08:00,30.6,23.3,30.15,ESE,122,1.0,2.0,74,0.00,,,0.00,WeatherCatV1.21B27,2013-11-30 02:08:00,
2013-11-29 20:13:00,30.8,23.8,30.15,SE,145,1.0,2.0,75,0.00,,,0.00,WeatherCatV1.21B27,2013-11-30 02:13:00,
2013-11-29 20:19:00,31.0,24.0,30.15,SE,135,1.0,5.0,75,0.00,,,0.00,WeatherCatV1.21B27,2013-11-30 02:19:00,
2013-11-29 20:24:00,31.2,23.9,30.14,SE,125,3.0,4.0,74,0.00,,,0.00,WeatherCatV1.21B27,2013-11-30 02:24:00,
2013-11-29 20:30:00,31.2,23.9,30.14,SE,124,2.0,3.0,74,0.00,,,0.00,WeatherCatV1.21B27,2013-11-30 02:30:00,
2013-11-29 20:36:00,31.2,23.9,30.14,SE,145,1.0,4.0,74,0.00,,,0.00,WeatherCatV1.21B27,2013-11-30 02:36:00,
2013-11-29 20:41:00,31.2,23.9,30.14,SE,130,5.0,5.0,74,0.00,,,0.00,WeatherCatV1.21B27,2013-11-30 02:41:00,
2013-11-29 20:51:00,31.3,24.3,30.13,SE,133,2.0,4.0,75,0.00,,,0.00,WeatherCatV1.21B27,2013-11-30 02:51:00,
2013-11-29 20:59:00,31.3,24.3,30.13,SE,129,2.0,3.0,75,0.00,,,0.00,WeatherCatV1.21B27,2013-11-30 02:59:00,
2013-11-29 21:05:00,31.3,24.3,30.13,SE,135,2.0,3.0,75,0.00,,,0.00,WeatherCatV1.21B27,2013-11-30 03:05:00,
2013-11-29 21:10:00,31.3,24.3,30.13,ESE,113,1.0,2.0,75,0.00,,,0.00,WeatherCatV1.21B27,2013-11-30 03:10:00,
2013-11-29 21:15:00,31.2,24.2,30.13,South,171,3.0,5.0,75,0.00,,,0.00,WeatherCatV1.21B27,2013-11-30 03:15:00,
2013-11-29 21:20:00,31.1,24.1,30.12,SE,135,3.0,4.0,75,0.00,,,0.00,WeatherCatV1.21B27,2013-11-30 03:20:00,
2013-11-29 21:25:00,31.0,24.3,30.12,SE,125,0.0,5.0,76,0.00,,,0.00,WeatherCatV1.21B27,2013-11-30 03:25:00,
2013-11-29 21:30:00,30.9,24.2,30.12,ESE,119,2.0,5.0,76,0.00,,,0.00,WeatherCatV1.21B27,2013-11-30 03:30:00,
2013-11-29 21:35:00,31.0,24.3,30.12,SE,131,4.0,5.0,76,0.00,,,0.00,WeatherCatV1.21B27,2013-11-30 03:35:00,
2013-11-29 21:41:00,31.0,24.3,30.12,SE,128,4.0,4.0,76,0.00,,,0.00,WeatherCatV1.21B27,2013-11-30 03:41:00,
2013-11-29 21:46:00,31.0,24.6,30.12,ESE,119,3.0,5.0,77,0.00,,,0.00,WeatherCatV1.21B27,2013-11-30 03:46:00,
2013-11-29 21:51:00,31.0,24.6,30.12,SE,129,1.0,8.0,77,0.00,,,0.00,WeatherCatV1.21B27,2013-11-30 03:51:00,
2013-11-29 21:56:00,31.0,24.6,30.12,SE,132,3.0,4.0,77,0.00,,,0.00,WeatherCatV1.21B27,2013-11-30 03:56:00,
2013-11-29 22:01:00,30.9,24.5,30.12,SSE,160,5.0,5.0,77,0.00,,,0.00,WeatherCatV1.21B27,2013-11-30 04:01:00,
2013-11-29 22:06:00,30.8,24.5,30.12,SE,142,1.0,5.0,77,0.00,,,0.00,WeatherCatV1.21B27,2013-11-30 04:06:00,
2013-11-29 22:11:00,30.7,24.4,30.11,SE,126,3.0,6.0,77,0.00,,,0.00,WeatherCatV1.21B27,2013-11-30 04:11:00,
2013-11-29 22:16:00,30.7,24.7,30.11,SE,129,1.0,2.0,78,0.00,,,0.00,WeatherCatV1.21B27,2013-11-30 04:16:00,
2013-11-29 22:21:00,30.6,24.3,30.11,SE,139,1.0,3.0,77,0.00,,,0.00,WeatherCatV1.21B27,2013-11-30 04:21:00,
2013-11-29 22:26:00,30.4,24.4,30.11,SE,138,0.0,3.0,78,0.00,,,0.00,WeatherCatV1.21B27,2013-11-30 04:26:00,
2013-11-29 22:31:00,30.2,24.2,30.12,SE,138,0.0,1.0,78,0.00,,,0.00,WeatherCatV1.21B27,2013-11-30 04:31:00,
2013-11-29 22:36:00,30.1,24.1,30.12,SE,138,0.0,0.0,78,0.00,,,0.00,WeatherCatV1.21B27,2013-11-30 04:36:00,
2013-11-29 22:41:00,29.9,24.2,30.11,SE,138,0.0,1.0,79,0.00,,,0.00,WeatherCatV1.21B27,2013-11-30 04:41:00,
2013-11-29 22:46:00,29.7,24.0,30.11,SE,138,1.0,3.0,79,0.00,,,0.00,WeatherCatV1.21B27,2013-11-30 04:46:00,
2013-11-29 22:51:00,29.6,24.2,30.11,SE,138,2.0,2.0,80,0.00,,,0.00,WeatherCatV1.21B27,2013-11-30 04:51:00,
2013-11-29 22:59:00,29.4,24.0,30.10,SE,137,0.0,2.0,80,0.00,,,0.00,WeatherCatV1.21B27,2013-11-30 04:59:00,
2013-11-29 23:01:00,29.3,23.9,30.10,SE,137,1.0,2.0,80,0.00,,,0.00,WeatherCatV1.21B27,2013-11-30 05:01:00,
2013-11-29 23:08:00,29.4,24.0,30.10,ESE,121,4.0,6.0,80,0.00,,,0.00,WeatherCatV1.21B27,2013-11-30 05:08:00,
2013-11-29 23:20:00,29.8,24.4,30.10,SE,128,1.0,4.0,80,0.00,,,0.00,WeatherCatV1.21B27,2013-11-30 05:20:00,
2013-11-29 23:22:00,29.9,24.5,30.10,SE,139,0.0,1.0,80,0.00,,,0.00,WeatherCatV1.21B27,2013-11-30 05:22:00,
2013-11-29 23:23:00,29.9,24.5,30.10,SE,138,0.0,1.0,80,0.00,,,0.00,WeatherCatV1.21B27,2013-11-30 05:23:00,
2013-11-29 23:25:00,29.9,24.5,30.10,SE,131,1.0,3.0,80,0.00,,,0.00,WeatherCatV1.21B27,2013-11-30 05:25:00,
2013-11-29 23:30:00,30.0,24.6,30.09,SE,131,1.0,5.0,80,0.00,,,0.00,WeatherCatV1.21B27,2013-11-30 05:30:00,
2013-11-29 23:35:00,30.1,24.7,30.10,SE,129,2.0,7.0,80,0.00,,,0.00,WeatherCatV1.21B27,2013-11-30 05:35:00,
2013-11-29 23:40:00,30.2,24.8,30.09,SE,127,2.0,3.0,80,0.00,,,0.00,WeatherCatV1.21B27,2013-11-30 05:40:00,
2013-11-29 23:45:00,30.4,25.0,30.09,SE,127,2.0,5.0,80,0.00,,,0.00,WeatherCatV1.21B27,2013-11-30 05:45:00,
2013-11-29 23:57:00,30.5,25.1,30.09,SE,127,2.0,4.0,80,0.00,,,0.00,WeatherCatV1.21B27,2013-11-30 05:57:00,